sat.trackr.live / text

‹ back to catalog

TDRS 7

NORAD 23613 · 1995-035B

PAYLOAD ACTIVE UNKNOWN

§ Identity

Operator
Country
US
Launch date
1995-07-13
Launch site
AFETR
Launch vehicle
Mass (kg)
RCS (m²)
22.39

Purposes: comms

External: N2YO · Heavens-Above · Gunter

§ Orbital elements

Epoch: 2026-05-25T00:44:44.352096Z

Period
1,436.11 min
Inclination
13.3871°
Eccentricity
0.0011130
Mean motion
1.00270588 rev/d
Perigee alt
35,740.0 km
Apogee alt
35,833.9 km
Semi-major
42,165.1 km
B*
0.0000e+0
RAAN
348.3510°
Arg perigee
72.6341°
Mean anomaly
282.0830°
Rev number
11,301

§ Raw data

TDRS 71 23613U 95035B   26145.03106889 -.00000250  00000+0  00000+0 0  99962 23613  13.3871 348.3510 0011130  72.6341 282.0830  1.00270588113013

JSON: /api/v1/satellites/23613 · /tle

For live sub-satellite position, see the globe view (requires WebGL).

§ Visibility from observer

Set your observer location to see the next 7 days of passes ≥ 10°. The values pass through the URL so the page stays shareable.

No JS? Fill the form by hand. The geolocation button needs JavaScript.